Flag for Tunisia Past Weather in Houmt Souk (Djerba), Tunisia — Yesterday and Last 2 Weeks

Now
82 °F

Sunny.


Feels Like: 83 °F
Forecast: 76 / 87 °F
Wind: 12 mph from Northeast

Location: Djerba Mellita

Current Time: May 26, 2016 at 3:44:57 PM

Latest Report: May 26, 2016 at 3:00 PM


Visibility: 10 mi

Pressure: 29.89 "Hg

Humidity: 51%

Dew Point: 63 °F

Location of Houmt Souk (Djerba)Location

Past Weather in Houmt Souk (Djerba) — Graph

°F

Houmt Souk (Djerba) Temperature Yesterday

Maximum temperature yesterday: 90 °F (at 2:00 PM)
Minimum temperature yesterday: 61 °F (at 5:00 AM)
Average temperature yesterday: 75 °F

High & Low Weather Summary for the Past Weeks

 TemperatureHumidityPressure
High95 °F (May 11, 4:00 PM)88% (May 12, 4:30 AM)30.12 "Hg (May 12, 4:30 AM)
Low59 °F (May 22, 4:30 AM)11% (May 23, 4:00 PM)29.59 "Hg (May 11, 9:00 PM)
Average72 °F59%29.95 "Hg
* Reported May 11 4:00 PM — May 26 2:30 PM, Houmt Souk (Djerba), Weather by CustomWeather, © 2016

Note: Actual official high and low records may vary slightly from our data, if they occured in-between our weather recording intervals... More about our weather records

Advertising

Houmt Souk (Djerba) Weather History for the Previous 24 Hours

Scroll right to see more
 ConditionsComfort  
Time TempWeatherWind HumidityBarometerVisibility
2:30 PM
Thu, May 26
81 °FSunny.13 mph58%29.89 "Hg10 mi
1:30 PM81 °FSunny.12 mph58%29.92 "Hg10 mi
1:00 PM81 °FSunny.10 mph58%29.92 "Hg10 mi
12:30 PM81 °FSunny.9 mph58%29.92 "Hg10 mi
12:00 PM79 °FSunny.8 mph61%29.92 "Hg10 mi
11:30 AM79 °FSunny.9 mph61%29.92 "Hg10 mi
11:00 AM79 °FSunny.9 mph61%29.92 "Hg10 mi
10:30 AM77 °FSunny.8 mph69%29.92 "Hg10 mi
10:00 AM77 °FSunny.8 mph69%29.95 "Hg10 mi
9:30 AM75 °FSunny.9 mph74%29.95 "Hg10 mi
9:00 AM75 °FSunny.7 mph74%29.92 "Hg10 mi
8:30 AM75 °FSunny.6 mph74%29.92 "Hg10 mi
8:00 AM75 °FSunny.5 mph74%29.92 "Hg10 mi
7:30 AM75 °FPassing clouds.5 mph74%29.92 "HgN/A
7:00 AM72 °FSunny.2 mph83%29.92 "Hg10 mi
6:00 AM68 °FClear.No wind88%29.89 "Hg5 mi
5:30 AM68 °FClear.No wind88%29.89 "Hg4 mi
5:00 AM68 °FClear.3 mph88%29.89 "Hg4 mi
4:30 AM70 °FClear.6 mph83%29.89 "Hg4 mi
4:00 AM70 °FClear.8 mph88%29.89 "Hg4 mi
3:30 AM70 °FClear.9 mph88%29.89 "Hg4 mi
3:00 AM70 °FClear.8 mph88%29.86 "Hg4 mi
2:30 AM72 °FClear.9 mph83%29.86 "Hg4 mi
2:00 AM72 °FClear.8 mph83%29.86 "Hg5 mi
1:30 AM72 °FClear.7 mph78%29.86 "Hg10 mi
1:00 AM72 °FPassing clouds.6 mph78%29.86 "HgN/A
12:00 AM72 °FClear.7 mph78%29.86 "Hg10 mi
11:30 PM
Wed, May 25
73 °FClear.6 mph69%29.89 "Hg10 mi
11:00 PM72 °FClear.5 mph73%29.89 "Hg10 mi
10:30 PM73 °FClear.7 mph69%29.89 "Hg10 mi
10:00 PM73 °FClear.10 mph65%29.86 "Hg10 mi
9:30 PM73 °FClear.13 mph69%29.86 "Hg10 mi
9:00 PM73 °FClear.14 mph69%29.86 "Hg10 mi
8:00 PM75 °FClear.15 mph61%29.86 "Hg10 mi
7:30 PM75 °FClear.15 mph57%29.86 "Hg10 mi
7:00 PM77 °FSunny.13 mph51%29.86 "Hg10 mi
6:30 PM81 °FSunny.15 mph45%29.86 "Hg10 mi
6:00 PM82 °FSunny.15 mph42%29.86 "Hg10 mi
5:30 PM86 °FSunny.15 mph38%29.86 "Hg10 mi
5:00 PM90 °FSunny.14 mph38%29.86 "Hg10 mi
4:30 PM90 °FSunny.13 mph38%29.86 "Hg10 mi
4:00 PM90 °FSunny.9 mph43%29.86 "Hg10 mi
3:30 PM90 °FSunny.9 mph43%29.89 "Hg10 mi
3:00 PM90 °FSunny.8 mph41%29.89 "Hg10 mi
Weather by CustomWeather, © 2016

See weather overviewHow to use our weather pages